Flag for Austria Weather past 2 weeks in Wals-Siezenheim, Salzburg, Austria

34 °F

Light rain. Broken clouds.

Feels Like: 30 °F
Forecast: 27 / 39 °F
Wind: 5 mph from Northwest

Location: Salzburg-Flughafen

Current Time: Nov 26, 2015 at 12:25:02 PM

Latest Report: Nov 26, 2015 at 11:50 AM

Visibility: 4 mi

Pressure: 29.92 "Hg

Humidity: 100%

Dew point: 34 °F

Location of Wals-SiezenheimLocation

Historic Weather in Wals-Siezenheim — Graph


Wals-Siezenheim temperature yesterday

Maximum temperature yesterday: 37 °F (at 2:20 PM)
Minimum temperature yesterday: 27 °F (at 12:20 AM)
Average temperature yesterday: 32 °F

Past Weeks' High & Low Weather Summary

High72 °F (Nov 15, 1:50 PM)100% (Nov 12, 2:50 AM)30.45 "Hg (Nov 12, 2:50 AM)
Low25 °F (Nov 24, 12:20 AM)28% (Nov 15, 9:20 PM)29.42 "Hg (Nov 21, 3:20 PM)
Average44 °F76%30.03 "Hg
* Reported Nov 11 10:20 AM — Nov 26 10:50 AM, Wals-Siezenheim, Weather by CustomWeather, © 2015

Note: Actual official high and low records may vary slightly from our data, if they occured in-between our weather recording intervals... More about our weather records


Wals-Siezenheim weather history for previous 24 hours

Time TempWeatherWind HumidityBarometerVisibility
10:50 AM
Thu, Nov 26
34 °FLight rain. Fog.7 mph100%29.89 "Hg2 mi
10:20 AM36 °FLight rain. Fog.5 mph100%29.89 "Hg2 mi
9:50 AM36 °FLight rain. Fog.2 mph100%29.86 "Hg2 mi
9:20 AM36 °FLight rain. Partly sunny.1 mph93%29.86 "Hg4 mi
8:50 AM36 °FBroken clouds.1 mph93%29.86 "Hg4 mi
8:20 AM34 °FBroken clouds.1 mph100%29.83 "Hg4 mi
7:50 AM34 °FBroken clouds.1 mph100%29.83 "Hg4 mi
7:20 AM34 °FPartly cloudy.1 mph100%29.80 "Hg5 mi
6:50 AM34 °FPartly cloudy.1 mph100%29.80 "Hg4 mi
6:20 AM34 °FPartly cloudy.1 mph100%29.80 "Hg4 mi
5:50 AM34 °FPartly cloudy.1 mph100%29.77 "Hg4 mi
5:20 AM34 °FPartly cloudy.2 mph100%29.77 "Hg4 mi
4:50 AM34 °FLight rain. Passing clouds.1 mph100%29.77 "Hg5 mi
3:50 AM32 °FLight rain. Passing clouds.2 mph100%29.77 "Hg4 mi
3:20 AM32 °FLight rain. Passing clouds.1 mph100%29.77 "Hg4 mi
2:50 AM32 °FLight rain. Passing clouds.2 mph100%29.77 "Hg4 mi
2:20 AM32 °FLight rain. Passing clouds.1 mph100%29.74 "Hg5 mi
1:50 AM32 °FSprinkles. Passing clouds.1 mph100%29.74 "Hg6 mi
1:20 AM32 °FSprinkles. Passing clouds.3 mph100%29.74 "HgN/A
12:50 AM32 °FPassing clouds.3 mph100%29.74 "HgN/A
12:20 AM32 °FPassing clouds.5 mph100%29.74 "HgN/A
11:50 PM
Wed, Nov 25
32 °FLight snow. Passing clouds.6 mph100%29.74 "Hg4 mi
11:20 PM34 °FLight snow. Passing clouds.5 mph87%29.74 "HgN/A
10:50 PM32 °FPartly cloudy.7 mph93%29.74 "HgN/A
10:20 PM32 °FPassing clouds.7 mph93%29.74 "HgN/A
9:50 PM32 °FLight snow. Passing clouds.8 mph93%29.74 "HgN/A
9:20 PM32 °FLight snow. Passing clouds.6 mph93%29.74 "Hg4 mi
8:50 PM32 °FLight snow. Passing clouds.6 mph93%29.74 "HgN/A
8:20 PM34 °FLight snow. Passing clouds.7 mph81%29.74 "HgN/A
7:50 PM34 °FLight snow. Partly cloudy.5 mph81%29.74 "HgN/A
7:20 PM32 °FLight snow. Partly cloudy.6 mph93%29.74 "HgN/A
6:50 PM32 °FLight snow. Partly cloudy.6 mph93%29.74 "Hg4 mi
6:20 PM34 °FLight snow. Partly cloudy.6 mph81%29.74 "Hg4 mi
5:50 PM34 °FLight snow. Passing clouds.5 mph93%29.74 "Hg6 mi
5:20 PM34 °FLight snow. Passing clouds.3 mph81%29.74 "Hg3 mi
4:50 PM36 °FLight snow. Passing clouds.3 mph60%29.74 "Hg5 mi
4:20 PM36 °FPartly sunny.2 mph60%29.74 "Hg6 mi
3:50 PM36 °FBroken clouds.2 mph65%29.74 "Hg6 mi
3:20 PM37 °FBroken clouds.2 mph56%29.74 "HgN/A
2:50 PM37 °FBroken clouds.5 mph60%29.74 "HgN/A
2:20 PM37 °FBroken clouds.6 mph56%29.74 "HgN/A
1:50 PM36 °FBroken clouds.8 mph56%29.77 "HgN/A
1:20 PM36 °FBroken clouds.6 mph56%29.77 "HgN/A
12:50 PM36 °FBroken clouds.7 mph56%29.80 "HgN/A
12:20 PM36 °FBroken clouds.6 mph56%29.80 "HgN/A
Weather by CustomWeather, © 2015

See weather overviewHow to use our weather pages